Tracking 19562 objects as of 24-Mar-2019
HD Live streaming from Space Station
objects crossing your sky now

UFO 2 (USA 95)

Track UFO 2 (USA 95) now!
UFO 2 (USA 95) is classified as:


NORAD ID: 22787
Int'l Code: 1993-056A
Perigee: 35,777.0 km
Apogee: 35,807.6 km
Inclination: 11.1 °
Period: 1,436.0 minutes
Semi major axis: 42163 km
RCS: Unknown
Launch date: September 3, 1993
Source: United States (US)
Launch site: AIR FORCE EASTERN TEST RANGE (AFETR)
aabbcc
Your satellite tracking list
Your tracking list is empty




NASA's NSSDC Master Catalog

Two Line Element Set (TLE):
1 22787U 93056A   19081.71108625 +.00000109 +00000-0 +00000-0 0  9998
2 22787 011.1260 018.3336 0003631 006.9930 079.3003 01.00277041092086
Source of the keplerian elements: McCants